TimeCDT,TemperatureF,Dew PointF,Humidity,Sea Level PressureIn,VisibilityMPH,Wind Direction,Wind SpeedMPH,Gust SpeedMPH,PrecipitationIn,Events,Conditions,WindDirDegrees,DateUTC
12:15 AM,57.2,46.4,67,29.47,10.0,South,10.4,-,N/A,,Clear,180,2012-10-17 05:15:00
12:35 AM,57.2,46.4,67,29.46,10.0,South,9.2,-,N/A,,Clear,170,2012-10-17 05:35:00
12:55 AM,57.2,46.4,67,29.46,10.0,South,9.2,-,N/A,,Clear,180,2012-10-17 05:55:00
1:15 AM,59.0,48.2,67,29.46,10.0,South,10.4,-,N/A,,Clear,190,2012-10-17 06:15:00
1:35 AM,57.2,48.2,72,29.46,10.0,South,10.4,-,N/A,,Clear,190,2012-10-17 06:35:00
1:55 AM,57.2,48.2,72,29.44,10.0,South,10.4,-,N/A,,Clear,180,2012-10-17 06:55:00
2:15 AM,59.0,50.0,72,29.44,10.0,South,10.4,-,N/A,,Clear,190,2012-10-17 07:15:00
2:35 AM,60.8,51.8,72,29.43,10.0,South,10.4,-,N/A,,Clear,190,2012-10-17 07:35:00
2:55 AM,59.0,51.8,77,29.43,10.0,Calm,Calm,-,N/A,,Clear,0,2012-10-17 07:55:00
3:15 AM,60.8,51.8,72,29.42,10.0,South,10.4,-,N/A,,Scattered Clouds,190,2012-10-17 08:15:00
3:35 AM,60.8,51.8,72,29.41,10.0,South,10.4,-,N/A,,Scattered Clouds,180,2012-10-17 08:35:00
3:55 AM,60.8,51.8,72,29.40,10.0,South,10.4,-,N/A,,Clear,180,2012-10-17 08:55:00
4:15 AM,60.8,51.8,72,29.40,10.0,South,13.8,-,N/A,,Clear,190,2012-10-17 09:15:00
4:35 AM,60.8,51.8,72,29.39,10.0,South,13.8,-,N/A,,Clear,180,2012-10-17 09:35:00
4:55 AM,60.8,51.8,72,29.39,10.0,South,12.7,-,N/A,,Clear,180,2012-10-17 09:55:00
5:15 AM,60.8,51.8,72,29.38,10.0,South,13.8,-,N/A,,Mostly Cloudy,180,2012-10-17 10:15:00
5:55 AM,60.8,51.8,72,29.39,10.0,South,12.7,-,N/A,,Mostly Cloudy,180,2012-10-17 10:55:00
6:15 AM,60.8,51.8,72,29.39,10.0,SSW,13.8,19.6,N/A,,Overcast,200,2012-10-17 11:15:00
6:55 AM,60.8,53.6,77,29.40,10.0,SSW,13.8,-,N/A,,Mostly Cloudy,200,2012-10-17 11:55:00
7:15 AM,60.8,53.6,77,29.42,10.0,SW,11.5,-,N/A,Rain,Light Rain,220,2012-10-17 12:15:00
7:35 AM,59.0,53.6,82,29.42,10.0,SW,9.2,-,N/A,Rain,Light Rain,220,2012-10-17 12:35:00
7:55 AM,59.0,53.6,82,29.41,10.0,WSW,8.1,-,N/A,,Scattered Clouds,240,2012-10-17 12:55:00
8:15 AM,60.8,53.6,77,29.41,10.0,West,9.2,-,N/A,,Light Drizzle,260,2012-10-17 13:15:00
8:35 AM,60.8,51.8,72,29.42,10.0,West,11.5,-,N/A,,Clear,270,2012-10-17 13:35:00
8:55 AM,60.8,48.2,63,29.44,10.0,WNW,18.4,-,N/A,,Mostly Cloudy,290,2012-10-17 13:55:00
9:15 AM,60.8,48.2,63,29.44,10.0,West,11.5,-,N/A,,Overcast,280,2012-10-17 14:15:00
9:35 AM,60.8,48.2,63,29.46,10.0,West,15.0,20.7,N/A,,Overcast,280,2012-10-17 14:35:00
9:55 AM,57.2,51.8,82,29.47,10.0,West,13.8,-,N/A,Rain,Light Rain,280,2012-10-17 14:55:00
10:15 AM,57.2,51.8,82,29.47,10.0,West,13.8,20.7,N/A,Rain,Rain,280,2012-10-17 15:15:00
10:35 AM,55.4,51.8,88,29.50,10.0,West,19.6,25.3,N/A,Rain,Light Rain,280,2012-10-17 15:35:00
10:55 AM,53.6,50.0,88,29.48,10.0,WNW,19.6,26.5,0.02,Rain,Light Rain,300,2012-10-17 15:55:00
11:15 AM,53.6,50.0,88,29.48,10.0,WNW,13.8,23.0,0.01,Rain,Light Rain,300,2012-10-17 16:15:00
11:35 AM,53.6,48.2,82,29.49,10.0,WNW,13.8,-,0.02,Rain,Light Rain,290,2012-10-17 16:35:00
11:55 AM,53.6,48.2,82,29.49,10.0,WNW,6.9,-,0.02,,Mostly Cloudy,290,2012-10-17 16:55:00
12:15 PM,55.4,50.0,82,29.50,10.0,WSW,5.8,-,N/A,,Overcast,250,2012-10-17 17:15:00
12:35 PM,55.4,50.0,82,29.48,10.0,West,10.4,-,N/A,,Mostly Cloudy,270,2012-10-17 17:35:00
12:55 PM,55.4,51.8,88,29.46,10.0,West,12.7,-,N/A,,Mostly Cloudy,270,2012-10-17 17:55:00
1:15 PM,55.4,44.6,67,29.45,10.0,WNW,23.0,28.8,N/A,,Scattered Clouds,290,2012-10-17 18:15:00
1:35 PM,57.2,42.8,59,29.45,10.0,WNW,20.7,31.1,N/A,,Clear,290,2012-10-17 18:35:00
1:55 PM,57.2,41.0,55,29.45,10.0,WNW,23.0,31.1,N/A,,Clear,290,2012-10-17 18:55:00
2:15 PM,57.2,39.2,51,29.45,10.0,WNW,19.6,28.8,N/A,,Clear,290,2012-10-17 19:15:00
2:35 PM,59.0,35.6,42,29.45,10.0,WNW,26.5,36.8,N/A,,Clear,290,2012-10-17 19:35:00
2:55 PM,59.0,37.4,45,29.44,10.0,WNW,29.9,38.0,N/A,,Clear,290,2012-10-17 19:55:00
3:15 PM,57.2,37.4,48,29.45,10.0,WNW,25.3,38.0,N/A,,Scattered Clouds,300,2012-10-17 20:15:00
3:35 PM,57.2,37.4,48,29.45,10.0,WNW,27.6,40.3,N/A,,Scattered Clouds,290,2012-10-17 20:35:00
3:55 PM,57.2,37.4,48,29.46,10.0,WNW,23.0,33.4,N/A,,Mostly Cloudy,300,2012-10-17 20:55:00
4:15 PM,57.2,35.6,44,29.47,10.0,WNW,20.7,39.1,N/A,,Mostly Cloudy,300,2012-10-17 21:15:00
4:35 PM,55.4,35.6,47,29.48,10.0,WNW,25.3,32.2,N/A,,Overcast,290,2012-10-17 21:35:00
4:55 PM,55.4,35.6,47,29.49,10.0,West,26.5,33.4,N/A,,Overcast,280,2012-10-17 21:55:00
5:15 PM,55.4,35.6,47,29.51,10.0,WNW,25.3,34.5,N/A,,Overcast,290,2012-10-17 22:15:00
5:35 PM,55.4,35.6,47,29.52,10.0,WNW,21.9,33.4,N/A,,Overcast,300,2012-10-17 22:35:00
5:55 PM,55.4,35.6,47,29.53,10.0,WNW,16.1,-,N/A,,Overcast,300,2012-10-17 22:55:00
6:15 PM,53.6,35.6,51,29.54,10.0,WNW,13.8,-,N/A,,Overcast,290,2012-10-17 23:15:00
6:35 PM,53.6,33.8,47,29.54,10.0,WNW,13.8,19.6,N/A,,Overcast,300,2012-10-17 23:35:00
6:55 PM,53.6,33.8,47,29.55,10.0,WNW,12.7,-,N/A,,Overcast,300,2012-10-17 23:55:00
7:15 PM,53.6,32.0,44,29.56,10.0,NW,15.0,19.6,N/A,,Overcast,310,2012-10-18 00:15:00
7:35 PM,53.6,32.0,44,29.56,10.0,WNW,16.1,23.0,N/A,,Overcast,290,2012-10-18 00:35:00
7:55 PM,53.6,30.2,41,29.57,10.0,WNW,19.6,28.8,N/A,,Overcast,300,2012-10-18 00:55:00
8:15 PM,53.6,30.2,41,29.57,10.0,WNW,16.1,25.3,N/A,,Overcast,300,2012-10-18 01:15:00
8:35 PM,51.8,30.2,44,29.57,10.0,WNW,15.0,-,N/A,,Overcast,290,2012-10-18 01:35:00
8:55 PM,51.8,30.2,44,29.56,10.0,WNW,13.8,-,N/A,,Overcast,290,2012-10-18 01:55:00
9:15 PM,50.0,30.2,47,29.56,10.0,West,10.4,-,N/A,,Overcast,280,2012-10-18 02:15:00
9:35 PM,50.0,32.0,50,29.56,10.0,West,9.2,-,N/A,,Mostly Cloudy,260,2012-10-18 02:35:00
10:15 PM,48.2,32.0,54,29.55,10.0,West,13.8,-,N/A,,Clear,260,2012-10-18 03:15:00
10:35 PM,48.2,32.0,54,29.54,10.0,West,15.0,-,N/A,,Clear,260,2012-10-18 03:35:00
10:55 PM,48.2,32.0,54,29.54,10.0,West,13.8,-,N/A,,Clear,260,2012-10-18 03:55:00
11:15 PM,46.4,30.2,53,29.53,10.0,West,11.5,-,N/A,,Clear,260,2012-10-18 04:15:00
11:35 PM,46.4,30.2,53,29.53,10.0,West,12.7,-,N/A,,Clear,260,2012-10-18 04:35:00
11:55 PM,46.4,30.2,53,29.52,10.0,West,10.4,-,N/A,,Clear,260,2012-10-18 04:55:00